Time,TemperatureF,DewpointF,PressureIn,WindDirection,WindDirectionDegrees,WindSpeedMPH,WindSpeedGustMPH,Humidity,HourlyPrecipIn,Conditions,Clouds,dailyrainin,SoftwareType,DateUTC
2013-07-27 00:02:00,51.0,-99.9,30.27,West,277,18.0,20.0,-999,-99.99,,,-99.99,,2013-07-27 08:02:00,
2013-07-27 00:12:00,51.0,-99.9,30.27,WNW,285,16.0,21.0,-999,-99.99,,,-99.99,,2013-07-27 08:12:00,
2013-07-27 00:22:00,51.0,-99.9,30.27,WNW,291,15.0,17.0,-999,-99.99,,,-99.99,,2013-07-27 08:22:00,
2013-07-27 00:43:00,51.0,-99.9,30.28,West,274,15.0,16.0,-999,-99.99,,,-99.99,,2013-07-27 08:43:00,
2013-07-27 00:53:00,51.0,-99.9,30.28,West,278,15.0,17.0,-999,-99.99,,,-99.99,,2013-07-27 08:53:00,
2013-07-27 01:22:00,50.0,-99.9,30.28,WNW,285,15.0,17.0,-999,-99.99,,,-99.99,,2013-07-27 09:22:00,
2013-07-27 01:44:00,49.0,-99.9,30.28,WNW,288,13.0,14.0,-999,-99.99,,,-99.99,,2013-07-27 09:44:00,
2013-07-27 02:02:00,49.0,-99.9,30.28,WNW,287,13.0,15.0,-999,-99.99,,,-99.99,,2013-07-27 10:02:00,
2013-07-27 02:32:00,49.0,-99.9,30.28,WNW,292,13.0,15.0,-999,-99.99,,,-99.99,,2013-07-27 10:32:00,
2013-07-27 02:44:00,49.0,-99.9,30.28,WNW,290,12.0,14.0,-999,-99.99,,,-99.99,,2013-07-27 10:44:00,
2013-07-27 03:02:00,49.0,-99.9,30.29,WNW,291,11.0,13.0,-999,-99.99,,,-99.99,,2013-07-27 11:02:00,
2013-07-27 04:03:00,48.0,-99.9,30.28,WNW,290,7.0,8.0,-999,-99.99,,,-99.99,,2013-07-27 12:03:00,
2013-07-27 04:33:00,48.0,-99.9,30.28,WNW,300,3.0,5.0,-999,-99.99,,,-99.99,,2013-07-27 12:33:00,
2013-07-27 04:43:00,48.0,-99.9,30.28,NNW,341,2.0,3.0,-999,-99.99,,,-99.99,,2013-07-27 12:43:00,
2013-07-27 05:12:00,52.0,-99.9,30.28,ENE,65,4.0,5.0,-999,-99.99,,,-99.99,,2013-07-27 13:12:00,
2013-07-27 05:22:00,51.0,-99.9,30.28,NNW,347,2.0,3.0,-999,-99.99,,,-99.99,,2013-07-27 13:22:00,
2013-07-27 05:44:00,52.0,-99.9,30.28,East,80,2.0,2.0,-999,-99.99,,,-99.99,,2013-07-27 13:44:00,
2013-07-27 06:12:00,51.0,-99.9,30.28,ENE,71,2.0,3.0,-999,-99.99,,,-99.99,,2013-07-27 14:12:00,
2013-07-27 06:22:00,51.0,-99.9,30.28,ENE,75,3.0,4.0,-999,-99.99,,,-99.99,,2013-07-27 14:22:00,
2013-07-27 06:44:00,50.0,-99.9,30.28,SSE,164,-999.0,1.0,-999,-99.99,,,-99.99,,2013-07-27 14:44:00,
2013-07-27 07:02:00,50.0,-99.9,30.28,ESE,120,0.0,2.0,-999,-99.99,,,-99.99,,2013-07-27 15:02:00,
2013-07-27 08:12:00,50.0,-99.9,30.28,ESE,105,3.0,4.0,-999,-99.99,,,-99.99,,2013-07-27 16:12:00,
2013-07-27 08:23:00,50.0,-99.9,30.28,East,87,3.0,4.0,-999,-99.99,,,-99.99,,2013-07-27 16:23:00,
2013-07-27 08:43:00,51.0,-99.9,30.28,ENE,63,-999.0,0.0,-999,-99.99,,,-99.99,,2013-07-27 16:43:00,
2013-07-27 09:23:00,53.0,-99.9,30.28,ESE,102,4.0,5.0,-999,-99.99,,,-99.99,,2013-07-27 17:23:00,
2013-07-27 09:54:00,55.0,-99.9,30.27,ESE,120,4.0,6.0,-999,-99.99,,,-99.99,,2013-07-27 17:54:00,
2013-07-27 10:03:00,55.0,-99.9,30.28,SE,127,4.0,6.0,-999,-99.99,,,-99.99,,2013-07-27 18:03:00,
2013-07-27 10:22:00,55.0,-99.9,30.28,SE,133,5.0,7.0,-999,-99.99,,,-99.99,,2013-07-27 18:22:00,
2013-07-27 10:43:00,55.0,-99.9,30.28,SE,141,5.0,6.0,-999,-99.99,,,-99.99,,2013-07-27 18:43:00,
2013-07-27 11:02:00,55.0,-99.9,30.29,South,170,5.0,7.0,-999,-99.99,,,-99.99,,2013-07-27 19:02:00,
2013-07-27 11:23:00,54.0,-99.9,30.29,SSE,165,6.0,7.0,-999,-99.99,,,-99.99,,2013-07-27 19:23:00,
2013-07-27 11:43:00,54.0,-99.9,30.29,South,170,5.0,6.0,-999,-99.99,,,-99.99,,2013-07-27 19:43:00,
2013-07-27 12:23:00,54.0,-99.9,30.29,SE,141,4.0,6.0,-999,-99.99,,,-99.99,,2013-07-27 20:23:00,
2013-07-27 13:03:00,56.0,-99.9,30.29,SSE,150,4.0,5.0,-999,-99.99,,,-99.99,,2013-07-27 21:03:00,
2013-07-27 13:43:00,56.0,-99.9,30.29,SSE,155,5.0,5.0,-999,-99.99,,,-99.99,,2013-07-27 21:43:00,
2013-07-27 13:53:00,56.0,-99.9,30.29,SSE,159,5.0,6.0,-999,-99.99,,,-99.99,,2013-07-27 21:53:00,
2013-07-27 14:02:00,56.0,-99.9,30.28,SE,143,4.0,5.0,-999,-99.99,,,-99.99,,2013-07-27 22:02:00,
2013-07-27 14:33:00,58.0,-99.9,30.28,East,99,2.0,3.0,-999,-99.99,,,-99.99,,2013-07-27 22:33:00,
2013-07-27 15:02:00,61.0,-99.9,30.28,NNE,23,-999.0,1.0,-999,-99.99,,,-99.99,,2013-07-27 23:02:00,
2013-07-27 15:53:00,58.0,-99.9,30.28,South,172,4.0,6.0,-999,-99.99,,,-99.99,,2013-07-27 23:53:00,
2013-07-27 16:02:00,58.0,-99.9,30.27,South,175,5.0,6.0,-999,-99.99,,,-99.99,,2013-07-28 00:02:00,
2013-07-27 16:32:00,59.0,-99.9,30.28,South,174,5.0,6.0,-999,-99.99,,,-99.99,,2013-07-28 00:32:00,
2013-07-27 16:44:00,59.0,-99.9,30.27,South,175,5.0,6.0,-999,-99.99,,,-99.99,,2013-07-28 00:44:00,
2013-07-27 16:53:00,58.0,-99.9,30.27,South,175,5.0,6.0,-999,-99.99,,,-99.99,,2013-07-28 00:53:00,
2013-07-27 17:02:00,58.0,-99.9,30.27,South,171,4.0,6.0,-999,-99.99,,,-99.99,,2013-07-28 01:02:00,
2013-07-27 17:12:00,58.0,-99.9,30.27,South,172,5.0,5.0,-999,-99.99,,,-99.99,,2013-07-28 01:12:00,
2013-07-27 17:43:00,58.0,-99.9,30.27,SSE,165,4.0,6.0,-999,-99.99,,,-99.99,,2013-07-28 01:43:00,
2013-07-27 18:03:00,58.0,-99.9,30.27,SSE,148,3.0,4.0,-999,-99.99,,,-99.99,,2013-07-28 02:03:00,
2013-07-27 18:32:00,59.0,-99.9,30.26,South,174,3.0,3.0,-999,-99.99,,,-99.99,,2013-07-28 02:32:00,
2013-07-27 18:43:00,59.0,-99.9,30.26,SSE,163,3.0,4.0,-999,-99.99,,,-99.99,,2013-07-28 02:43:00,
2013-07-27 18:53:00,59.0,-99.9,30.26,SSE,150,2.0,3.0,-999,-99.99,,,-99.99,,2013-07-28 02:53:00,
2013-07-27 19:03:00,59.0,-99.9,30.26,SSE,151,4.0,5.0,-999,-99.99,,,-99.99,,2013-07-28 03:03:00,
2013-07-27 19:22:00,60.0,-99.9,30.26,SE,143,2.0,4.0,-999,-99.99,,,-99.99,,2013-07-28 03:22:00,
2013-07-27 19:43:00,60.0,-99.9,30.25,SSE,166,4.0,5.0,-999,-99.99,,,-99.99,,2013-07-28 03:43:00,
2013-07-27 20:02:00,60.0,-99.9,30.25,SSE,163,3.0,5.0,-999,-99.99,,,-99.99,,2013-07-28 04:02:00,
2013-07-27 20:22:00,59.0,-99.9,30.25,SSE,153,6.0,6.0,-999,-99.99,,,-99.99,,2013-07-28 04:22:00,
2013-07-27 20:43:00,59.0,-99.9,30.24,SE,140,3.0,6.0,-999,-99.99,,,-99.99,,2013-07-28 04:43:00,
2013-07-27 20:53:00,59.0,-99.9,30.24,SE,146,6.0,6.0,-999,-99.99,,,-99.99,,2013-07-28 04:53:00,
2013-07-27 21:02:00,60.0,-99.9,30.24,SSE,151,6.0,6.0,-999,-99.99,,,-99.99,,2013-07-28 05:02:00,
2013-07-27 21:12:00,59.0,-99.9,30.24,SE,144,6.0,7.0,-999,-99.99,,,-99.99,,2013-07-28 05:12:00,
2013-07-27 21:43:00,59.0,-99.9,30.24,SE,140,5.0,6.0,-999,-99.99,,,-99.99,,2013-07-28 05:43:00,
2013-07-27 22:02:00,59.0,-99.9,30.23,SE,141,6.0,7.0,-999,-99.99,,,-99.99,,2013-07-28 06:02:00,
2013-07-27 22:22:00,59.0,-99.9,30.23,SE,138,6.0,7.0,-999,-99.99,,,-99.99,,2013-07-28 06:22:00,
2013-07-27 22:32:00,59.0,-99.9,30.23,SE,124,5.0,7.0,-999,-99.99,,,-99.99,,2013-07-28 06:32:00,
2013-07-27 22:53:00,59.0,-99.9,30.22,ESE,112,5.0,6.0,-999,-99.99,,,-99.99,,2013-07-28 06:53:00,
2013-07-27 23:32:00,59.0,-99.9,30.22,East,98,6.0,6.0,-999,-99.99,,,-99.99,,2013-07-28 07:32:00,
2013-07-27 23:43:00,59.0,-99.9,30.22,East,96,6.0,7.0,-999,-99.99,,,-99.99,,2013-07-28 07:43:00,